Location: Reading
(51.4439°N, 0.9841°W)
Time: 04:08:39
(UTC+00:00)

ISS - Visible Passes

Search period start: 22 January 2018 00:00
Search period end: 01 February 2018 00:00
Orbit: 402 x 407 km, 51.6° (Epoch: 22 January)

Date Brightness Start Highest point End Pass type
(mag) Time Alt. Az. Time Alt. Az. Time Alt. Az.
26 Jan -1.0 19:28:36 10° SW 19:29:04 13° SW 19:29:04 13° SW visible
27 Jan -2.2 18:36:45 10° SSW 18:39:05 22° SSE 18:39:05 22° SSE visible
28 Jan -1.7 17:45:17 10° S 17:47:14 15° SE 17:49:02 11° ESE visible
28 Jan -1.9 19:19:59 10° WSW 19:21:42 27° SW 19:21:42 27° SW visible
29 Jan -3.1 18:27:49 10° SW 18:30:53 38° SSE 18:31:34 33° ESE visible
29 Jan -0.4 20:03:56 10° W 20:04:13 12° W 20:04:13 12° W visible
30 Jan -2.4 17:35:51 10° SSW 17:38:38 26° SSE 17:41:23 10° E visible
30 Jan -2.9 19:11:33 10° WSW 19:14:02 48° WSW 19:14:02 48° WSW visible
31 Jan -3.6 18:19:13 10° WSW 18:22:26 61° SSE 18:23:48 30° E visible
31 Jan -0.8 19:55:36 10° W 19:56:27 17° W 19:56:27 17° W visible
